SCP
0 0 0 0 0 0 0 0 0 0 0 0 0 0 0 0 0 0 0 0 1 1 1 2 3 2 2 1 1 1 1 1 1 1 1 1 1 1 0 0 0 0 0 0 0 0 0 0 0
0 0 0 0 0 0 0 0 0 0 0 0 0 0 0 0 1 1 1 1 1 1 2 2 3 2 2 2 1 1 1 1 1 1 1 1 1 1 1 0 0 0 0 0 0 0 0 0 0
0 0 0 0 0 0 0 0 0 0 0 0 0 0 0 0 1 1 1 1 1 1 2 2 3 3 2 2 2 1 1 1 1 1 1 1 1 1 1 1 1 1 1 1 1 0 0 0 0
0 0 0 0 0 0 0 0 0 0 0 0 0 0 0 1 1 1 1 1 1 1 2 3 3 3 2 2 2 1 1 1 1 1 1 1 1 1 1 1 1 1 1 1 1 1 1 0 0
0 0 0 0 0 0 0 0 0 0 0 0 0 1 1 1 1 1 1 1 1 1 2 3 3 3 2 2 2 2 2 2 1 1 1 1 1 1 1 1 1 1 1 1 1 1 1 1 1
0 0 0 0 0 0 0 0 0 0 0 0 0 1 1 1 1 1 1 1 1 2 2 2 3 2 2 2 2 2 2 2 2 1 1 1 1 1 1 1 1 1 1 1 1 1 1 1 1
0 0 0 0 0 0 0 0 0 0 0 0 0 1 1 1 2 2 1 1 1 2 2 2 2 2 2 2 2 2 2 2 2 1 1 1 1 1 2 1 1 1 1 1 1 1 1 1 1
0 0 0 0 0 0 0 0 0 0 0 0 0 0 1 1 2 2 2 1 1 2 2 2 2 2 2 2 2 2 2 2 2 1 1 1 1 1 2 2 1 1 1 1 1 1 1 1 1
0 0 0 0 0 0 0 0 0 0 0 0 0 0 1 2 2 2 2 1 1 1 2 2 2 2 2 2 2 2 2 2 2 1 1 1 1 1 2 1 1 1 1 1 1 1 1 1 1
0 0 0 0 0 0 0 0 0 0 0 0 0 0 1 1 2 2 1 1 1 1 1 2 2 2 2 2 2 3 3 2 2 1 1 1 1 1 1 1 1 1 1 1 1 1 1 1 1
0 0 0 0 0 0 0 0 0 0 0 0 0 0 0 1 1 1 1 1 1 1 1 1 2 2 2 2 2 3 3 3 2 1 1 1 1 1 1 1 1 1 1 1 1 1 1 1 1
0 0 0 0 0 0 0 0 0 0 0 0 0 0 0 1 1 1 1 1 1 1 1 1 1 2 2 2 2 3 3 3 2 1 1 1 1 1 1 1 1 1 1 1 1 1 1 1 1
0 0 0 0 0 0 0 0 0 0 0 0 0 0 0 1 1 1 1 1 0 1 1 1 1 1 1 1 2 3 3 3 2 1 1 1 1 1 1 0 0 0 0 1 0 0 1 1 1
0 0 0 0 0 0 0 0 0 0 0 0 0 0 0 1 1 1 1 1 1 1 0 1 1 1 1 2 2 2 3 2 2 1 1 0 0 0 0 0 0 0 0 1 0 0 0 0 1
0 0 0 0 0 0 0 0 0 0 0 0 0 0 0 0 1 1 1 1 1 1 0 0 1 1 1 1 2 2 2 2 1 1 1 0 0 0 0 0 0 0 0 0 0 0 0 0 0
0 0 0 0 0 0 0 0 0 0 0 0 0 0 0 0 0 1 1 1 1 1 0 0 0 1 1 1 2 2 2 1 1 1 1 1 0 0 0 0 0 0 0 0 0 0 0 0 0
0 0 0 0 0 0 0 0 0 0 0 0 0 0 0 0 0 1 1 1 1 0 0 0 0 1 1 1 2 2 2 1 1 1 1 1 1 0 0 0 0 0 0 0 0 0 0 0 0
0 0 0 0 0 0 0 0 0 0 0 0 1 1 0 0 0 0 1 1 0 0 0 0 0 1 1 1 1 1 1 1 1 1 1 1 1 0 0 0 0 0 0 0 0 0 0 0 0
0 0 0 0 0 0 0 0 0 0 0 0 1 1 0 0 0 0 0 0 0 0 0 0 0 1 1 1 1 1 1 1 1 1 0 1 1 0 0 0 0 0 0 0 0 0 0 0 0
0 0 0 0 0 0 0 0 0 0 0 0 0 0 0 0 0 0 0 0 0 0 0 0 0 1 1 0 0 0 1 1 1 1 0 0 0 0 0 0 0 0 0 0 0 0 0 0 0
0 0 0 0 0 0 0 0 0 0 0 0 0 0 0 0 0 0 0 0 0 0 0 0 0 0 0 0 0 0 0 0 0 0 0 0 0 0 0 0 0 0 0 0 0 0 0 0 0
0 0 0 0 0 0 0 0 0 0 0 0 0 0 0 0 0 0 0 0 0 0 0 0 0 0 0 0 0 0 0 0 0 0 0 0 0 0 0 0 0 1 1 0 0 0 0 0 0
0 0 0 0 0 0 0 0 0 0 0 0 0 0 0 0 0 0 0 0 0 0 0 0 0 0 0 0 0 0 0 0 0 0 0 0 0 0 0 0 0 1 1 0 0 0 0 0 0
0 0 0 0 0 0 0 0 0 0 0 0 0 0 0 0 0 0 0 0 0 0 0 0 0 0 0 0 0 0 0 0 0 0 0 0 0 0 0 0 0 0 1 1 0 0 0 0 0
0 0 0 0 0 0 0 0 0 0 0 0 0 0 0 0 0 0 0 0 0 0 0 0 0 0 0 0 0 0 0 0 0 0 0 0 0 0 0 0 0 0 1 1 0 0 0 0 0
0 0 0 0 0 0 0 0 0 0 0 0 0 0 0 0 0 0 0 0 0 0 0 0 0 0 0 0 0 0 0 0 0 0 0 0 0 0 0 0 0 0 0 1 1 0 0 0 0
0 0 0 0 0 0 0 0 0 0 0 0 0 0 0 0 0 0 0 0 0 0 0 0 0 0 0 0 0 0 0 0 0 0 0 0 0 0 0 0 0 0 0 0 1 0 0 0 0
0 0 0 0 0 0 0 0 0 0 0 0 0 0 0 0 0 0 0 0 0 0 0 0 0 0 0 0 0 0 0 0 0 0 0 0 0 0 0 0 0 0 0 0 0 0 0 0 0
0 0 0 0 0 0 0 0 0 0 0 0 0 0 0 0 0 0 0 0 0 0 0 0 0 0 0 0 0 0 0 0 0 0 0 0 0 0 0 0 0 0 0 0 0 0 0 0 0
0 0 0 0 0 0 0 0 0 0 0 0 0 0 0 0 0 0 0 0 0 0 0 0 0 0 0 0 0 0 0 0 0 0 0 0 0 0 0 0 0 0 0 0 0 0 0 0 0
Wind_Speed
8 4 2 4 6 4 3 3 2 1 1 1 0 1 4 3 3 2 1 1 3 4 4 6 8 9 10 10 10 10 10 10 11 11 11 11 11 11 11 11 11 11 11 12 12 12 12 13 13
2 2 5 5 5 1 4 3 2 2 1 1 2 2 3 1 1 1 1 1 3 4 4 5 8 9 10 10 10 10 10 10 10 10 10 10 10 10 10 10 10 10 11 11 11 11 12 12 12
2 3 5 5 4 5 4 2 3 1 1 1 2 2 2 1 2 1 1 1 3 4 3 5 8 8 9 10 10 10 10 10 10 10 10 10 10 10 10 10 10 10 10 10 10 10 11 11 11
3 5 6 4 3 4 2 1 0 0 2 3 2 2 1 2 1 1 1 2 4 3 3 5 8 8 9 10 10 10 10 10 10 10 9 10 9 9 9 9 9 9 9 9 10 10 10 10 10
4 5 4 1 3 3 2 2 0 1 1 2 2 1 1 3 3 2 3 3 4 3 2 4 7 8 8 9 9 9 10 10 10 9 9 9 9 9 9 8 8 8 9 9 9 9 9 10 10
5 5 4 2 3 2 2 1 0 1 1 1 2 1 0 2 4 3 3 3 3 3 2 3 7 8 8 8 8 9 9 9 9 9 8 8 9 9 8 8 8 8 8 8 8 8 9 9 9
5 4 3 3 2 2 2 1 1 1 1 1 1 2 1 2 4 3 3 4 3 3 3 2 3 6 7 7 7 7 8 8 8 8 7 7 8 8 8 7 7 7 7 7 7 8 8 8 8
4 5 2 2 2 3 2 1 0 1 1 1 2 3 2 3 2 3 4 5 4 3 3 2 2 3 4 4 6 7 7 7 7 7 7 7 7 7 7 6 6 6 6 7 7 7 7 7 7
3 4 3 4 4 3 1 1 2 1 2 1 0 1 2 0 2 4 4 4 3 3 3 2 2 2 3 3 4 5 6 6 6 5 6 5 3 3 3 4 5 6 6 6 6 6 6 6 6
4 3 4 2 3 2 0 0 0 2 2 1 1 2 2 2 3 4 2 1 1 2 2 2 2 2 2 3 3 2 2 3 3 3 3 2 2 2 3 4 4 5 5 5 5 5 5 5 3
2 3 2 0 1 1 0 0 0 2 1 3 2 1 0 2 2 2 1 0 1 1 1 1 1 2 2 2 2 2 2 2 2 3 2 2 2 2 2 1 2 2 3 2 3 3 2 2 2
2 1 0 1 1 0 1 0 0 2 4 2 2 2 2 3 2 2 2 1 1 1 1 1 1 1 1 1 2 2 2 2 2 2 2 2 2 1 1 1 1 1 1 1 1 1 2 2 2
1 1 1 0 1 0 1 1 1 3 4 2 1 2 2 3 2 2 1 1 0 1 1 1 1 1 1 2 1 2 2 2 2 2 2 2 2 2 1 1 1 1 1 1 1 1 2 2 2
1 0 1 2 1 1 1 2 1 4 2 1 1 1 1 2 2 1 0 1 1 1 1 1 1 1 1 2 1 2 1 2 2 2 2 2 2 2 2 2 1 1 1 1 1 2 2 1 1
1 2 3 2 1 1 1 4 4 4 1 0 1 1 1 2 1 2 2 2 2 2 0 0 0 1 1 1 1 2 2 2 2 2 2 2 2 2 2 2 1 1 1 1 1 1 1 1 1
2 2 2 3 0 1 2 6 3 1 2 2 2 2 2 2 2 2 2 2 1 1 1 0 1 1 1 1 1 1 2 2 1 1 1 1 1 2 2 2 1 1 1 1 1 2 1 1 1
2 1 3 4 1 0 2 6 5 1 1 2 3 3 2 2 3 2 2 2 2 2 1 1 1 1 1 1 1 1 2 2 1 1 1 1 1 2 2 1 1 1 1 1 1 1 1 1 0
3 2 2 4 2 0 3 7 7 3 1 3 3 3 3 3 4 3 2 2 2 1 1 1 1 1 1 1 1 1 2 1 1 1 1 1 1 1 1 1 1 1 1 1 0 1 1 1 1
2 2 3 4 2 2 5 8 8 5 2 4 4 4 4 5 4 2 2 1 1 1 1 1 2 1 1 1 1 1 1 1 1 1 1 1 1 1 1 1 1 1 1 1 0 0 1 0 0
1 2 3 4 2 2 4 8 7 5 4 5 5 5 5 3 2 2 2 1 2 3 2 2 2 1 2 1 1 1 1 1 1 1 1 1 1 0 1 1 1 1 1 1 1 1 1 0 1
3 4 4 4 4 2 3 7 5 4 3 3 4 4 3 4 4 3 1 2 2 2 2 2 2 2 2 1 1 1 2 2 1 1 1 2 1 0 0 0 1 1 1 1 1 2 2 1 0
5 4 4 2 1 3 1 6 6 4 4 4 4 3 4 3 2 2 1 1 2 2 2 1 2 2 2 2 2 2 2 1 1 0 0 1 1 0 0 0 1 1 1 1 1 1 1 2 1
4 1 2 2 2 3 1 3 9 2 5 7 5 4 3 2 2 2 2 1 1 1 1 1 2 2 2 2 3 2 2 1 1 1 1 1 0 1 1 1 1 1 1 2 1 1 1 2 2
2 3 3 3 2 3 3 4 9 3 5 5 4 3 2 2 1 0 1 1 2 2 1 1 2 1 1 2 2 2 3 2 1 1 1 1 1 1 1 1 1 1 1 2 2 2 2 2 2
2 4 3 3 2 6 2 4 10 4 3 4 4 3 2 1 1 0 1 1 1 1 1 1 1 1 1 1 1 2 2 3 3 3 2 2 1 1 2 2 2 2 2 2 1 2 2 2 3
3 5 5 4 5 5 1 7 8 2 3 3 3 2 1 1 1 0 1 1 0 0 1 1 1 1 1 0 1 1 2 2 2 2 2 2 2 2 2 2 2 2 2 2 2 2 3 2 2
3 3 3 4 1 3 5 7 7 1 3 3 2 1 0 0 0 0 0 0 0 0 1 1 1 0 0 1 1 1 1 1 1 2 2 2 2 2 2 2 3 3 2 3 3 2 3 3 3
2 5 3 3 2 4 6 5 5 4 4 4 2 2 2 1 1 1 1 1 1 1 1 1 1 1 1 1 1 1 1 2 1 1 2 2 2 2 2 2 3 3 3 3 3 2 2 3 3
2 2 3 3 3 4 4 7 4 4 2 3 4 2 2 2 1 1 1 1 1 1 1 1 1 1 1 2 2 1 2 2 2 2 2 2 2 2 3 3 3 3 3 3 3 3 3 4 3
2 4 5 3 4 4 3 8 2 1 1 2 4 3 2 2 1 1 1 1 1 1 2 2 2 2 2 2 2 2 2 2 2 2 3 2 2 2 3 3 3 4 4 4 4 4 4 4 4
Wind_Direction
345 354 47 55 57 56 223 239 228 263 261 329 357 125 139 139 159 188 348 104 114 138 149 150 141 138 134 130 125 119 117 115 112 110 108 107 108 107 103 99 97 96 95 96 96 95 95 94 92
346 8 50 60 95 167 254 240 230 230 205 92 37 59 81 64 19 46 20 1 128 141 144 145 140 137 135 132 129 127 123 119 115 113 111 110 110 108 104 101 99 97 96 97 98 98 97 95 94
8 49 79 81 130 187 218 220 214 291 12 75 52 41 84 19 355 329 316 114 117 130 138 147 139 137 137 134 132 132 128 123 117 115 114 113 111 109 107 104 102 99 97 97 100 100 99 98 96
62 47 56 84 202 220 222 249 203 70 30 43 80 44 30 13 322 299 16 111 109 116 126 146 140 138 137 134 133 132 129 126 122 118 116 116 113 109 106 105 105 103 101 99 101 101 100 100 99
58 76 72 65 242 255 261 295 263 99 35 23 87 93 354 4 9 45 72 102 111 108 115 142 138 133 133 134 134 131 127 126 123 119 117 117 114 111 108 106 107 107 107 106 104 105 104 102 100
60 72 104 210 248 279 290 299 143 85 82 25 89 127 260 10 21 24 58 76 95 107 103 134 138 133 132 130 132 131 129 125 123 120 117 117 115 112 111 109 108 109 110 110 107 108 107 106 104
104 105 159 189 228 270 291 319 144 133 107 248 171 138 278 351 357 22 56 61 65 81 86 96 135 140 136 131 129 125 125 121 117 117 116 113 113 114 113 112 112 111 111 111 108 111 108 107 109
119 110 130 188 201 250 306 6 25 144 210 293 122 145 243 283 341 50 67 59 57 58 69 81 99 121 132 136 130 123 117 116 114 111 111 110 112 116 111 109 113 114 113 111 108 111 110 106 106
89 89 182 204 195 238 315 56 359 10 96 40 49 202 272 191 75 66 60 45 45 45 36 60 87 103 120 128 128 125 121 114 109 108 107 105 106 113 111 101 105 110 111 111 110 112 112 104 101
87 150 213 207 189 198 217 72 333 43 32 347 338 353 23 88 87 82 61 39 25 27 12 33 76 91 118 131 124 119 108 107 97 99 103 104 104 101 103 104 103 103 103 109 107 105 104 93 86
116 179 206 267 246 191 176 307 47 134 245 229 222 257 94 104 103 119 114 5 319 333 8 16 56 88 105 123 123 114 107 103 100 104 102 103 97 94 91 101 99 94 90 93 92 87 89 101 102
119 243 208 290 337 127 212 222 350 195 229 260 235 181 163 153 173 187 181 231 308 329 340 2 43 85 88 98 126 126 122 120 120 118 110 112 114 113 119 112 101 98 102 105 98 104 108 113 117
130 259 330 320 35 53 94 242 247 267 280 316 35 115 166 179 201 221 205 184 312 327 326 349 26 89 106 89 117 121 137 143 137 125 116 117 134 142 136 127 115 114 114 129 125 121 126 125 122
197 310 307 318 332 345 193 279 241 269 285 19 86 167 214 206 204 195 307 279 275 268 308 4 23 56 103 118 118 139 148 148 134 133 130 124 131 142 146 142 135 135 138 147 149 148 141 143 141
62 11 340 326 295 269 113 300 240 253 181 189 237 230 243 239 223 219 226 225 229 224 202 77 165 66 95 110 112 138 131 126 139 142 137 134 127 143 149 147 146 165 152 145 131 122 117 129 137
46 36 319 309 296 249 140 263 276 257 160 223 253 268 266 259 244 238 245 251 243 208 166 149 101 83 120 118 99 126 119 113 124 136 146 143 130 130 141 148 157 155 142 144 150 137 120 135 172
34 294 270 300 307 106 176 252 275 299 182 247 259 261 264 280 288 269 253 243 242 208 182 144 110 133 165 136 100 90 106 101 95 99 121 130 136 134 141 146 136 132 134 144 169 139 138 152 202
224 228 255 263 295 253 243 260 277 287 231 258 260 266 267 265 267 267 259 253 249 210 166 139 92 90 121 121 94 75 83 85 80 92 108 115 121 110 132 132 117 117 105 66 77 131 113 142 184
174 192 258 267 284 251 251 265 272 271 273 273 271 262 257 258 274 293 283 252 219 153 142 141 104 96 100 115 136 155 134 108 90 76 55 85 84 109 120 105 129 138 149 161 138 71 87 47 58
180 238 268 291 314 257 274 274 270 261 245 243 250 257 254 265 294 293 281 209 188 176 171 158 146 146 147 162 166 170 142 122 105 50 39 35 64 92 130 112 128 122 140 126 132 91 99 69 109
235 218 238 267 323 314 304 296 273 270 246 262 260 260 255 238 241 248 229 197 186 179 186 174 164 147 146 123 101 73 78 75 51 28 20 4 4 93 78 117 173 152 145 186 193 164 147 176 267
243 223 223 250 308 297 16 294 288 281 290 284 278 274 260 250 244 237 220 208 203 207 195 168 151 132 139 136 133 125 135 153 185 188 243 337 346 339 44 216 207 190 188 200 220 182 171 157 195
223 211 189 209 209 299 301 250 285 311 288 282 274 267 264 246 214 216 211 220 212 186 175 172 143 129 136 143 154 160 170 182 166 138 174 238 318 328 344 325 274 228 215 210 208 210 198 186 188
167 67 59 55 81 273 228 200 280 250 255 289 285 269 257 248 227 238 16 43 27 40 69 112 148 145 147 153 168 184 188 180 165 176 200 230 246 275 300 297 273 257 240 227 218 213 217 216 200
102 95 37 355 338 254 203 213 255 260 265 276 280 269 255 221 172 101 60 59 45 41 40 46 102 110 133 148 192 221 210 196 198 205 209 221 232 259 262 267 262 262 253 237 221 212 229 227 218
185 153 161 201 235 278 258 238 255 266 295 298 283 253 194 161 133 173 216 184 181 25 39 50 56 40 38 356 253 259 226 209 216 224 223 227 233 238 246 251 255 259 254 246 229 225 226 230 236
158 187 160 136 171 278 266 279 297 309 332 338 336 13 349 241 138 236 280 254 226 260 263 235 234 316 336 313 306 291 270 239 234 234 235 237 237 237 235 244 246 249 246 242 228 226 233 228 225
158 148 121 141 175 259 283 269 262 301 306 322 327 311 314 335 337 325 302 282 272 253 265 276 259 256 285 293 287 301 304 292 260 237 245 249 252 248 242 247 248 247 244 242 235 232 234 232 231
142 146 147 150 171 181 264 270 230 228 263 297 303 289 290 289 279 279 286 286 288 303 292 285 287 292 290 283 283 291 288 286 276 259 251 251 254 248 240 241 247 249 247 239 232 234 225 227 238
189 183 163 180 225 196 216 267 282 199 278 297 301 310 291 279 278 266 275 300 306 293 284 279 279 271 265 266 268 265 269 271 268 270 266 259 259 256 250 247 249 255 251 241 234 236 232 227 232